Weather History for Tekamah, NE

Change the Weather History Date:

Thursday, May 2, 2013

  Actual Average Record
Temperature  
Mean Temperature 44 °F -  
Max Temperature 52 °F 69 °F 93 °F (1987)
Min Temperature 36 °F 44 °F 25 °F (1967)
Degree Days  
Heating Degree Days 22    
Moisture  
Dew Point 31 °F    
Average Humidity 67    
Maximum Humidity 86    
Minimum Humidity 44    
Precipitation  
Precipitation 0.00 in - - ()
Sea Level Pressure  
Sea Level Pressure 30.50 in    
Wind  
Wind Speed 18 mph (North)    
Max Wind Speed 29 mph    
Max Gust Speed 39 mph    
Visibility 10 miles    
Events      
Averages and records for this station are not official NWS values.
T = Trace of Precipitation, MM = Missing Value Source: NWS Daily Summary

Daily Weather History Graph

Daily Weather History Graph

Search for Another Location

Airport:

Trip Planner

Search our weather history database for the weather conditions in past years. The results will help you decide how hot, cold, wet, or windy it might be!

Date:

Astronomy

May. 02, 2013 Rise Set
Actual Time 6:19 AM CDT 8:24 PM CDT
Civil Twilight 5:49 AM CDT 8:54 PM CDT
Nautical Twilight 5:11 AM CDT 9:32 PM CDT
Astronomical Twilight 4:31 AM CDT 10:13 PM CDT
Moon 2:13 AM CDT (5/2) 1:09 PM CDT (5/2)
Length of Visible Light 15h 05m
Length of Day
14h 04m
Waning Gibbous, 47% of the Moon is Illuminated
May 2
Waning Gibbous
May 9
New
May 17
First Quarter
May 24
Full
May 31
Last Quarter

Hourly Weather History & Observations

Time (CDT) Temp. Windchill Dew Point Humidity Pressure Visibility Wind Dir Wind Speed Gust Speed Precip Events Conditions
12:54 AM 36.0 °F 27.5 °F 32.0 °F 86% 30.47 in 7.0 mi North 12.7 mph - 0.00 in   Overcast
1:54 AM 37.0 °F 26.7 °F 30.9 °F 79% 30.47 in 8.0 mi North 19.6 mph - N/A   Overcast
2:54 AM 36.0 °F 25.6 °F 30.9 °F 82% 30.48 in 8.0 mi North 18.4 mph - N/A   Overcast
3:54 AM 36.0 °F 25.3 °F 30.9 °F 82% 30.47 in 8.0 mi North 19.6 mph - N/A   Overcast
4:54 AM 36.0 °F 25.3 °F 30.0 °F 79% 30.50 in 9.0 mi North 19.6 mph - N/A   Overcast
5:54 AM 36.0 °F 25.6 °F 30.0 °F 79% 30.53 in 10.0 mi North 18.4 mph - N/A   Overcast
6:54 AM 36.0 °F 26.3 °F 28.9 °F 76% 30.53 in 10.0 mi North 16.1 mph - N/A   Overcast
7:54 AM 36.0 °F 26.3 °F 28.0 °F 73% 30.55 in 10.0 mi North 16.1 mph - N/A   Overcast
8:54 AM 37.0 °F 26.4 °F 28.0 °F 70% 30.58 in 10.0 mi NNW 20.7 mph - N/A   Overcast
9:54 AM 37.9 °F 27.9 °F 28.9 °F 70% 30.58 in 10.0 mi North 19.6 mph - N/A   Overcast
10:54 AM 41.0 °F 31.1 °F 28.9 °F 62% 30.57 in 10.0 mi North 23.0 mph - N/A   Partly Cloudy
11:54 AM 44.1 °F 34.6 °F 32.0 °F 63% 30.56 in 10.0 mi North 26.5 mph 33.4 mph N/A   Mostly Cloudy
12:54 PM 45.0 °F 35.4 °F 33.1 °F 63% 30.55 in 10.0 mi North 28.8 mph 35.7 mph N/A   Mostly Cloudy
1:54 PM 46.0 °F 37.0 °F 32.0 °F 58% 30.55 in 10.0 mi North 27.6 mph 38.0 mph N/A   Scattered Clouds
2:54 PM 48.0 °F - 33.1 °F 56% 30.51 in 10.0 mi North 27.6 mph 39.1 mph N/A   Scattered Clouds
3:54 PM 50.0 °F - 33.1 °F 52% 30.48 in 10.0 mi North 24.2 mph 35.7 mph N/A   Partly Cloudy
4:54 PM 50.0 °F - 32.0 °F 50% 30.46 in 10.0 mi North 25.3 mph - N/A   Partly Cloudy
5:54 PM 51.1 °F - 33.1 °F 50% 30.45 in 10.0 mi North 20.7 mph 31.1 mph N/A   Partly Cloudy
6:54 PM 51.1 °F - 30.0 °F 44% 30.44 in 10.0 mi North 18.4 mph 27.6 mph N/A   Clear
7:54 PM 48.0 °F - 30.9 °F 52% 30.44 in 10.0 mi North 15.0 mph - N/A   Clear
8:54 PM 44.1 °F 39.0 °F 30.9 °F 60% 30.44 in 10.0 mi North 9.2 mph - N/A   Clear
9:54 PM 42.1 °F 36.6 °F 30.0 °F 62% 30.44 in 10.0 mi North 9.2 mph - N/A   Clear
10:54 PM 37.9 °F 31.5 °F 30.0 °F 73% 30.44 in 9.0 mi NNW 9.2 mph - N/A   Clear
11:54 PM 37.0 °F 29.8 °F 30.0 °F 76% 30.42 in 10.0 mi North 10.4 mph - N/A   Clear